QPF
0.00 0.00 0.00 0.00 0.00 0.00 0.00 0.00 0.00 0.00 0.00 0.00 0.00 0.00 0.00 0.00 0.00 0.00 0.00 0.00 0.00 0.00 0.00 0.00 0.00 0.00 0.00 0.00 0.00 0.00 0.01 0.02 0.02 0.02 0.03 0.05 0.08 0.11 0.11 0.12 0.13 0.12 0.11
0.00 0.00 0.00 0.00 0.00 0.00 0.00 0.00 0.00 0.00 0.00 0.00 0.00 0.00 0.00 0.00 0.00 0.00 0.00 0.00 0.00 0.00 0.00 0.00 0.00 0.00 0.00 0.00 0.00 0.00 0.00 0.01 0.02 0.03 0.04 0.07 0.09 0.12 0.14 0.14 0.13 0.12 0.10
0.00 0.00 0.00 0.00 0.00 0.00 0.00 0.00 0.00 0.00 0.00 0.00 0.00 0.00 0.00 0.00 0.00 0.00 0.00 0.00 0.00 0.00 0.00 0.00 0.00 0.00 0.00 0.00 0.00 0.00 0.00 0.01 0.02 0.03 0.05 0.08 0.12 0.13 0.14 0.13 0.13 0.12 0.10
0.00 0.00 0.00 0.00 0.00 0.00 0.00 0.00 0.00 0.00 0.00 0.00 0.00 0.00 0.00 0.00 0.00 0.00 0.00 0.00 0.00 0.00 0.00 0.00 0.00 0.00 0.00 0.00 0.00 0.00 0.00 0.01 0.02 0.03 0.05 0.08 0.13 0.16 0.15 0.12 0.11 0.11 0.08
0.00 0.00 0.00 0.00 0.00 0.00 0.00 0.00 0.00 0.00 0.00 0.00 0.00 0.00 0.00 0.00 0.00 0.00 0.00 0.00 0.00 0.00 0.00 0.00 0.00 0.00 0.00 0.00 0.00 0.00 0.00 0.00 0.01 0.03 0.05 0.08 0.13 0.17 0.17 0.14 0.13 0.11 0.09
0.00 0.00 0.00 0.00 0.00 0.00 0.00 0.00 0.00 0.00 0.00 0.00 0.00 0.00 0.00 0.00 0.00 0.00 0.00 0.00 0.00 0.00 0.00 0.00 0.00 0.00 0.00 0.00 0.00 0.00 0.00 0.00 0.01 0.03 0.05 0.07 0.10 0.18 0.21 0.22 0.17 0.11 0.07
0.00 0.00 0.00 0.00 0.00 0.00 0.00 0.00 0.00 0.00 0.00 0.00 0.00 0.00 0.00 0.00 0.00 0.00 0.00 0.00 0.00 0.00 0.00 0.00 0.00 0.00 0.00 0.00 0.00 0.00 0.00 0.00 0.01 0.02 0.05 0.07 0.08 0.15 0.23 0.25 0.23 0.17 0.09
0.00 0.00 0.00 0.00 0.00 0.00 0.00 0.00 0.00 0.00 0.00 0.00 0.00 0.00 0.00 0.00 0.00 0.00 0.00 0.00 0.00 0.00 0.00 0.00 0.00 0.00 0.00 0.00 0.00 0.00 0.00 0.01 0.01 0.01 0.02 0.06 0.08 0.14 0.24 0.29 0.32 0.28 0.18
0.00 0.00 0.00 0.00 0.00 0.00 0.00 0.00 0.00 0.00 0.00 0.00 0.00 0.00 0.00 0.00 0.00 0.00 0.00 0.00 0.00 0.00 0.00 0.00 0.00 0.00 0.00 0.00 0.00 0.01 0.01 0.01 0.01 0.02 0.02 0.04 0.08 0.13 0.23 0.35 0.38 0.36 0.25
0.00 0.00 0.00 0.00 0.00 0.00 0.00 0.00 0.00 0.00 0.00 0.00 0.00 0.00 0.00 0.00 0.00 0.00 0.00 0.00 0.00 0.00 0.00 0.00 0.00 0.00 0.01 0.01 0.01 0.01 0.01 0.01 0.02 0.02 0.02 0.03 0.06 0.12 0.20 0.31 0.37 0.35 0.27
0.00 0.00 0.00 0.00 0.00 0.00 0.00 0.00 0.00 0.00 0.00 0.00 0.00 0.00 0.00 0.00 0.00 0.00 0.00 0.00 0.00 0.00 0.00 0.00 0.01 0.01 0.01 0.02 0.02 0.02 0.02 0.03 0.03 0.03 0.03 0.03 0.05 0.10 0.16 0.25 0.35 0.35 0.27
0.00 0.00 0.00 0.00 0.00 0.00 0.00 0.00 0.00 0.00 0.00 0.00 0.00 0.00 0.00 0.00 0.01 0.00 0.00 0.00 0.00 0.00 0.01 0.01 0.02 0.02 0.03 0.03 0.02 0.03 0.04 0.04 0.05 0.05 0.04 0.03 0.04 0.09 0.14 0.21 0.32 0.36 0.31
0.00 0.00 0.00 0.00 0.00 0.00 0.00 0.00 0.00 0.00 0.00 0.00 0.00 0.00 0.01 0.00 0.00 0.00 0.01 0.01 0.01 0.01 0.01 0.02 0.03 0.03 0.04 0.04 0.04 0.03 0.04 0.05 0.05 0.06 0.04 0.03 0.04 0.07 0.12 0.20 0.31 0.43 0.42
0.00 0.00 0.00 0.00 0.00 0.00 0.00 0.00 0.00 0.00 0.00 0.00 0.00 0.00 0.00 0.00 0.00 0.01 0.00 0.01 0.01 0.01 0.01 0.02 0.03 0.04 0.05 0.05 0.05 0.05 0.05 0.06 0.05 0.06 0.07 0.06 0.05 0.07 0.11 0.18 0.28 0.38 0.46
0.00 0.00 0.00 0.00 0.00 0.00 0.00 0.00 0.00 0.00 0.00 0.00 0.00 0.00 0.00 0.00 0.00 0.00 0.00 0.00 0.01 0.01 0.02 0.03 0.03 0.03 0.04 0.05 0.06 0.06 0.05 0.06 0.06 0.06 0.07 0.08 0.07 0.07 0.09 0.15 0.23 0.30 0.36
0.00 0.00 0.00 0.00 0.00 0.00 0.00 0.00 0.00 0.00 0.00 0.00 0.00 0.00 0.00 0.00 0.00 0.00 0.00 0.01 0.01 0.01 0.01 0.02 0.03 0.03 0.04 0.05 0.06 0.06 0.06 0.07 0.06 0.05 0.06 0.05 0.05 0.07 0.08 0.12 0.18 0.24 0.27
0.00 0.00 0.00 0.00 0.00 0.00 0.00 0.00 0.00 0.00 0.00 0.00 0.00 0.00 0.00 0.00 0.00 0.00 0.01 0.00 0.00 0.01 0.01 0.01 0.03 0.03 0.05 0.06 0.07 0.06 0.06 0.07 0.06 0.05 0.05 0.05 0.04 0.05 0.08 0.11 0.15 0.21 0.25
0.00 0.00 0.00 0.00 0.00 0.00 0.00 0.00 0.00 0.00 0.00 0.00 0.00 0.01 0.01 0.00 0.00 0.00 0.01 0.01 0.01 0.01 0.01 0.02 0.04 0.04 0.05 0.06 0.06 0.07 0.07 0.07 0.06 0.04 0.04 0.04 0.04 0.04 0.06 0.09 0.12 0.17 0.22
0.00 0.00 0.00 0.00 0.00 0.00 0.00 0.00 0.00 0.00 0.00 0.00 0.00 0.01 0.01 0.01 0.01 0.01 0.01 0.01 0.01 0.01 0.01 0.01 0.02 0.03 0.04 0.04 0.05 0.06 0.05 0.05 0.05 0.04 0.03 0.04 0.04 0.04 0.05 0.06 0.10 0.14 0.19
0.00 0.00 0.00 0.00 0.00 0.00 0.00 0.00 0.00 0.00 0.00 0.00 0.01 0.01 0.01 0.01 0.01 0.01 0.01 0.01 0.02 0.02 0.02 0.01 0.01 0.02 0.02 0.03 0.03 0.03 0.04 0.04 0.04 0.04 0.03 0.04 0.04 0.03 0.04 0.05 0.06 0.10 0.14
0.00 0.00 0.00 0.00 0.00 0.00 0.00 0.00 0.00 0.00 0.00 0.01 0.01 0.01 0.01 0.02 0.02 0.02 0.01 0.01 0.02 0.03 0.03 0.02 0.02 0.02 0.02 0.02 0.02 0.02 0.03 0.03 0.03 0.03 0.03 0.04 0.03 0.03 0.03 0.04 0.05 0.07 0.12
0.00 0.00 0.00 0.00 0.00 0.00 0.00 0.00 0.00 0.00 0.00 0.01 0.01 0.01 0.02 0.03 0.03 0.02 0.02 0.02 0.02 0.03 0.03 0.03 0.03 0.02 0.02 0.02 0.02 0.03 0.04 0.03 0.02 0.02 0.03 0.03 0.03 0.03 0.04 0.04 0.04 0.06 0.09
0.00 0.00 0.00 0.00 0.00 0.00 0.00 0.00 0.00 0.00 0.00 0.00 0.01 0.02 0.03 0.03 0.02 0.03 0.03 0.02 0.02 0.03 0.03 0.04 0.04 0.04 0.03 0.03 0.02 0.02 0.03 0.03 0.02 0.02 0.02 0.03 0.03 0.03 0.04 0.04 0.03 0.05 0.06
0.00 0.00 0.00 0.00 0.00 0.00 0.00 0.00 0.00 0.00 0.00 0.00 0.01 0.02 0.02 0.02 0.03 0.03 0.04 0.03 0.02 0.02 0.03 0.04 0.05 0.05 0.05 0.03 0.03 0.03 0.03 0.03 0.03 0.03 0.02 0.02 0.02 0.02 0.03 0.02 0.03 0.04 0.05
0.00 0.00 0.00 0.00 0.00 0.00 0.00 0.00 0.00 0.00 0.00 0.00 0.01 0.02 0.02 0.02 0.03 0.04 0.04 0.03 0.03 0.03 0.03 0.04 0.07 0.07 0.06 0.04 0.03 0.02 0.03 0.04 0.04 0.04 0.03 0.03 0.02 0.02 0.02 0.02 0.02 0.04 0.06
0.00 0.00 0.00 0.00 0.00 0.00 0.00 0.00 0.00 0.00 0.01 0.01 0.01 0.02 0.02 0.02 0.03 0.03 0.03 0.03 0.03 0.03 0.03 0.04 0.05 0.06 0.06 0.05 0.03 0.03 0.03 0.03 0.03 0.03 0.03 0.03 0.02 0.02 0.02 0.02 0.02 0.04 0.05
MSLP
1014.56 1014.55 1014.58 1014.60 1014.60 1014.57 1014.51 1014.41 1014.29 1014.16 1014.02 1013.88 1013.72 1013.56 1013.37 1013.18 1012.98 1012.80 1012.65 1012.56 1012.52 1012.55 1012.61 1012.69 1012.75 1012.76 1012.70 1012.56 1012.33 1012.02 1011.66 1011.28 1010.88 1010.49 1010.12 1009.77 1009.45 1009.16 1008.92 1008.74 1008.64 1008.64 1008.77
1014.31 1014.23 1014.19 1014.16 1014.12 1014.07 1014.00 1013.90 1013.79 1013.67 1013.53 1013.39 1013.23 1013.05 1012.85 1012.64 1012.42 1012.22 1012.05 1011.93 1011.87 1011.86 1011.89 1011.95 1012.01 1012.05 1012.04 1011.98 1011.86 1011.68 1011.46 1011.20 1010.92 1010.62 1010.32 1010.01 1009.70 1009.40 1009.13 1008.91 1008.78 1008.75 1008.85
1014.06 1013.93 1013.83 1013.75 1013.67 1013.58 1013.49 1013.37 1013.25 1013.12 1012.97 1012.82 1012.65 1012.45 1012.24 1012.02 1011.79 1011.58 1011.39 1011.25 1011.16 1011.12 1011.13 1011.17 1011.24 1011.30 1011.34 1011.35 1011.33 1011.27 1011.17 1011.04 1010.87 1010.67 1010.44 1010.18 1009.90 1009.62 1009.35 1009.14 1009.01 1008.98 1009.08
1013.79 1013.63 1013.49 1013.36 1013.24 1013.12 1012.99 1012.85 1012.70 1012.55 1012.38 1012.21 1012.03 1011.82 1011.60 1011.37 1011.13 1010.91 1010.71 1010.55 1010.44 1010.38 1010.38 1010.41 1010.48 1010.56 1010.65 1010.73 1010.79 1010.82 1010.82 1010.78 1010.71 1010.59 1010.42 1010.22 1009.98 1009.74 1009.51 1009.34 1009.24 1009.24 1009.36
1013.48 1013.31 1013.15 1013.00 1012.85 1012.69 1012.53 1012.35 1012.18 1011.99 1011.81 1011.61 1011.40 1011.19 1010.96 1010.72 1010.48 1010.25 1010.05 1009.88 1009.76 1009.69 1009.68 1009.71 1009.78 1009.88 1009.99 1010.11 1010.22 1010.32 1010.39 1010.42 1010.40 1010.34 1010.23 1010.07 1009.89 1009.70 1009.54 1009.42 1009.39 1009.45 1009.62
1013.12 1012.97 1012.82 1012.66 1012.49 1012.31 1012.11 1011.91 1011.69 1011.48 1011.26 1011.04 1010.81 1010.58 1010.33 1010.09 1009.85 1009.62 1009.41 1009.25 1009.13 1009.05 1009.04 1009.06 1009.13 1009.24 1009.36 1009.50 1009.64 1009.76 1009.86 1009.92 1009.95 1009.92 1009.85 1009.74 1009.61 1009.49 1009.39 1009.36 1009.40 1009.54 1009.78
1012.74 1012.62 1012.49 1012.33 1012.16 1011.96 1011.74 1011.50 1011.26 1011.01 1010.76 1010.51 1010.25 1010.00 1009.74 1009.48 1009.24 1009.01 1008.81 1008.64 1008.52 1008.45 1008.43 1008.45 1008.51 1008.61 1008.73 1008.87 1009.00 1009.13 1009.23 1009.31 1009.34 1009.34 1009.30 1009.23 1009.16 1009.10 1009.08 1009.13 1009.27 1009.49 1009.81
1012.34 1012.26 1012.16 1012.02 1011.84 1011.63 1011.39 1011.13 1010.85 1010.57 1010.29 1010.00 1009.72 1009.43 1009.16 1008.89 1008.64 1008.41 1008.21 1008.04 1007.92 1007.85 1007.82 1007.83 1007.88 1007.96 1008.06 1008.18 1008.30 1008.41 1008.51 1008.58 1008.62 1008.64 1008.62 1008.60 1008.58 1008.59 1008.64 1008.77 1008.99 1009.30 1009.69
1011.96 1011.92 1011.83 1011.70 1011.52 1011.30 1011.04 1010.75 1010.44 1010.13 1009.80 1009.48 1009.17 1008.86 1008.56 1008.28 1008.02 1007.79 1007.59 1007.42 1007.30 1007.22 1007.18 1007.17 1007.20 1007.26 1007.33 1007.43 1007.52 1007.62 1007.70 1007.77 1007.82 1007.85 1007.87 1007.89 1007.92 1007.99 1008.12 1008.32 1008.61 1008.98 1009.44
1011.61 1011.58 1011.50 1011.36 1011.17 1010.93 1010.64 1010.33 1009.99 1009.64 1009.28 1008.93 1008.58 1008.25 1007.94 1007.64 1007.38 1007.14 1006.94 1006.78 1006.65 1006.56 1006.50 1006.48 1006.48 1006.50 1006.55 1006.61 1006.68 1006.76 1006.84 1006.91 1006.98 1007.04 1007.10 1007.16 1007.25 1007.37 1007.56 1007.81 1008.15 1008.57 1009.07
1011.30 1011.26 1011.16 1011.00 1010.78 1010.51 1010.19 1009.84 1009.46 1009.08 1008.69 1008.30 1007.94 1007.59 1007.27 1006.97 1006.71 1006.48 1006.28 1006.12 1005.99 1005.88 1005.81 1005.75 1005.72 1005.72 1005.73 1005.76 1005.81 1005.88 1005.96 1006.05 1006.14 1006.24 1006.34 1006.45 1006.59 1006.76 1006.99 1007.27 1007.64 1008.08 1008.61
1011.01 1010.94 1010.80 1010.60 1010.34 1010.02 1009.66 1009.27 1008.86 1008.44 1008.02 1007.62 1007.24 1006.88 1006.56 1006.28 1006.03 1005.82 1005.63 1005.47 1005.34 1005.23 1005.13 1005.05 1004.99 1004.94 1004.92 1004.92 1004.96 1005.02 1005.11 1005.21 1005.34 1005.48 1005.62 1005.78 1005.96 1006.17 1006.42 1006.72 1007.10 1007.54 1008.07
1010.73 1010.60 1010.41 1010.16 1009.84 1009.48 1009.07 1008.64 1008.19 1007.74 1007.31 1006.89 1006.51 1006.17 1005.86 1005.60 1005.38 1005.19 1005.02 1004.88 1004.75 1004.63 1004.52 1004.41 1004.31 1004.23 1004.17 1004.15 1004.16 1004.22 1004.31 1004.44 1004.59 1004.76 1004.95 1005.15 1005.36 1005.59 1005.86 1006.16 1006.53 1006.96 1007.46
1010.42 1010.24 1010.00 1009.69 1009.32 1008.91 1008.46 1007.99 1007.51 1007.04 1006.59 1006.17 1005.79 1005.47 1005.19 1004.96 1004.78 1004.62 1004.49 1004.37 1004.25 1004.12 1003.99 1003.85 1003.72 1003.60 1003.51 1003.46 1003.45 1003.50 1003.59 1003.73 1003.91 1004.11 1004.32 1004.55 1004.78 1005.02 1005.28 1005.58 1005.93 1006.34 1006.83
1010.06 1009.84 1009.56 1009.21 1008.80 1008.34 1007.86 1007.36 1006.85 1006.37 1005.91 1005.49 1005.13 1004.83 1004.59 1004.40 1004.25 1004.13 1004.03 1003.94 1003.83 1003.70 1003.56 1003.40 1003.24 1003.09 1002.96 1002.88 1002.84 1002.87 1002.96 1003.09 1003.27 1003.49 1003.71 1003.95 1004.19 1004.43 1004.69 1004.98 1005.31 1005.70 1006.18
1009.65 1009.41 1009.11 1008.73 1008.30 1007.83 1007.32 1006.80 1006.28 1005.78 1005.32 1004.91 1004.56 1004.28 1004.07 1003.91 1003.80 1003.72 1003.65 1003.57 1003.48 1003.35 1003.20 1003.02 1002.84 1002.66 1002.50 1002.38 1002.32 1002.32 1002.39 1002.51 1002.69 1002.89 1003.11 1003.35 1003.58 1003.82 1004.07 1004.35 1004.68 1005.07 1005.53
1009.18 1008.96 1008.66 1008.29 1007.87 1007.39 1006.88 1006.35 1005.83 1005.32 1004.85 1004.44 1004.09 1003.82 1003.62 1003.48 1003.39 1003.33 1003.29 1003.22 1003.14 1003.02 1002.86 1002.67 1002.47 1002.26 1002.08 1001.94 1001.85 1001.83 1001.87 1001.97 1002.12 1002.31 1002.52 1002.73 1002.96 1003.19 1003.44 1003.72 1004.05 1004.44 1004.92
1008.67 1008.48 1008.22 1007.89 1007.49 1007.04 1006.54 1006.02 1005.48 1004.97 1004.49 1004.06 1003.71 1003.43 1003.23 1003.09 1003.01 1002.95 1002.91 1002.85 1002.77 1002.64 1002.48 1002.29 1002.07 1001.86 1001.66 1001.50 1001.40 1001.36 1001.38 1001.45 1001.58 1001.74 1001.92 1002.12 1002.33 1002.56 1002.80 1003.09 1003.44 1003.85 1004.36
1008.11 1007.99 1007.79 1007.52 1007.17 1006.75 1006.28 1005.76 1005.23 1004.70 1004.20 1003.76 1003.38 1003.08 1002.86 1002.70 1002.60 1002.53 1002.47 1002.41 1002.32 1002.19 1002.03 1001.83 1001.62 1001.40 1001.20 1001.04 1000.93 1000.88 1000.88 1000.94 1001.05 1001.18 1001.35 1001.53 1001.72 1001.94 1002.19 1002.49 1002.86 1003.31 1003.85
1007.52 1007.48 1007.36 1007.16 1006.87 1006.49 1006.05 1005.55 1005.02 1004.48 1003.96 1003.49 1003.08 1002.74 1002.48 1002.29 1002.16 1002.06 1001.97 1001.89 1001.78 1001.64 1001.48 1001.28 1001.08 1000.87 1000.68 1000.53 1000.43 1000.38 1000.39 1000.44 1000.53 1000.65 1000.80 1000.96 1001.15 1001.36 1001.62 1001.93 1002.33 1002.81 1003.38
1006.92 1006.95 1006.91 1006.78 1006.55 1006.23 1005.82 1005.33 1004.81 1004.26 1003.72 1003.22 1002.78 1002.40 1002.10 1001.87 1001.69 1001.55 1001.43 1001.31 1001.18 1001.03 1000.85 1000.66 1000.46 1000.28 1000.11 999.99 999.91 999.88 999.89 999.95 1000.04 1000.16 1000.30 1000.46 1000.64 1000.85 1001.11 1001.44 1001.85 1002.35 1002.96
1006.30 1006.41 1006.44 1006.37 1006.20 1005.92 1005.54 1005.08 1004.56 1004.01 1003.46 1002.94 1002.47 1002.06 1001.72 1001.44 1001.22 1001.04 1000.87 1000.72 1000.56 1000.39 1000.20 1000.01 999.83 999.66 999.52 999.42 999.37 999.37 999.41 999.49 999.60 999.72 999.86 1000.02 1000.20 1000.42 1000.68 1001.01 1001.43 1001.95 1002.57
1005.69 1005.86 1005.94 1005.93 1005.80 1005.55 1005.20 1004.76 1004.26 1003.72 1003.17 1002.64 1002.17 1001.74 1001.38 1001.07 1000.81 1000.59 1000.39 1000.20 1000.00 999.80 999.60 999.40 999.22 999.07 998.95 998.89 998.87 998.90 998.97 999.08 999.21 999.35 999.51 999.67 999.86 1000.07 1000.34 1000.67 1001.08 1001.59 1002.20
1005.13 1005.33 1005.45 1005.47 1005.37 1005.15 1004.82 1004.40 1003.92 1003.41 1002.88 1002.38 1001.91 1001.49 1001.12 1000.80 1000.52 1000.27 1000.04 999.81 999.57 999.34 999.11 998.90 998.71 998.56 998.46 998.42 998.43 998.49 998.59 998.73 998.89 999.05 999.22 999.40 999.60 999.81 1000.07 1000.39 1000.79 1001.28 1001.87
1004.64 1004.85 1004.99 1005.02 1004.94 1004.74 1004.44 1004.05 1003.60 1003.12 1002.64 1002.17 1001.74 1001.35 1001.00 1000.69 1000.40 1000.13 999.86 999.60 999.33 999.06 998.79 998.55 998.34 998.18 998.08 998.04 998.07 998.15 998.28 998.44 998.62 998.82 999.01 999.20 999.41 999.63 999.88 1000.19 1000.56 1001.02 1001.57
1004.26 1004.48 1004.61 1004.65 1004.57 1004.38 1004.10 1003.75 1003.35 1002.92 1002.49 1002.08 1001.70 1001.35 1001.03 1000.73 1000.45 1000.17 999.89 999.59 999.27 998.96 998.66 998.37 998.13 997.95 997.83 997.78 997.81 997.90 998.04 998.22 998.42 998.63 998.84 999.05 999.26 999.49 999.74 1000.03 1000.38 1000.81 1001.31
Thickness
5659 5655 5650 5646 5642 5637 5633 5629 5625 5620 5616 5612 5608 5604 5601 5598 5596 5593 5591 5590 5590 5591 5592 5594 5597 5599 5603 5607 5611 5617 5622 5627 5634 5644 5652 5660 5667 5675 5681 5687 5692 5697 5701
5657 5652 5647 5643 5638 5633 5628 5624 5619 5614 5610 5606 5602 5598 5594 5592 5589 5586 5584 5584 5583 5583 5584 5585 5587 5590 5594 5597 5601 5607 5613 5619 5625 5633 5640 5648 5657 5665 5671 5677 5682 5687 5692
5653 5648 5643 5638 5633 5628 5623 5619 5614 5609 5604 5600 5595 5591 5588 5585 5582 5580 5578 5577 5576 5576 5576 5577 5579 5581 5584 5587 5592 5597 5603 5610 5616 5623 5630 5638 5647 5654 5660 5666 5670 5675 5680
5650 5644 5638 5634 5628 5623 5618 5613 5608 5603 5598 5594 5589 5585 5582 5578 5575 5573 5572 5570 5569 5569 5568 5569 5570 5572 5575 5578 5582 5587 5593 5599 5606 5614 5621 5628 5635 5644 5651 5655 5659 5663 5668
5645 5640 5635 5630 5624 5619 5613 5608 5603 5597 5593 5588 5583 5579 5575 5571 5569 5567 5565 5564 5562 5561 5561 5561 5562 5563 5566 5568 5572 5577 5582 5588 5595 5603 5611 5617 5625 5633 5641 5647 5650 5653 5657
5641 5636 5631 5625 5619 5614 5609 5603 5597 5592 5587 5581 5577 5573 5569 5566 5564 5560 5558 5556 5555 5553 5553 5552 5552 5554 5557 5560 5564 5568 5572 5578 5585 5593 5601 5608 5616 5624 5632 5638 5642 5646 5648
5637 5632 5627 5621 5615 5610 5604 5598 5592 5586 5581 5575 5571 5566 5563 5559 5556 5553 5550 5548 5547 5545 5544 5543 5544 5546 5547 5549 5553 5558 5563 5569 5575 5583 5592 5600 5607 5615 5623 5629 5635 5640 5643
5633 5627 5622 5616 5610 5605 5598 5592 5587 5581 5575 5570 5565 5561 5557 5554 5550 5547 5543 5540 5538 5537 5535 5534 5533 5534 5535 5537 5540 5545 5551 5557 5565 5573 5582 5591 5598 5606 5613 5621 5628 5631 5632
5629 5623 5618 5612 5605 5599 5593 5587 5581 5575 5570 5565 5560 5556 5551 5549 5545 5540 5536 5532 5530 5529 5527 5526 5525 5525 5525 5525 5528 5533 5538 5545 5551 5559 5568 5578 5587 5595 5603 5610 5618 5623 5625
5626 5620 5614 5607 5600 5594 5588 5582 5576 5569 5564 5559 5555 5551 5546 5543 5539 5534 5529 5525 5523 5521 5519 5517 5516 5516 5516 5515 5517 5521 5527 5533 5538 5546 5555 5564 5574 5584 5593 5602 5611 5617 5621
5622 5615 5609 5602 5595 5589 5583 5577 5571 5565 5559 5555 5551 5547 5542 5538 5534 5529 5524 5519 5516 5514 5512 5511 5510 5508 5507 5506 5507 5511 5516 5519 5525 5533 5542 5552 5562 5573 5583 5593 5602 5611 5617
5617 5610 5604 5597 5590 5586 5578 5573 5567 5560 5555 5551 5546 5543 5539 5534 5529 5525 5520 5515 5510 5507 5506 5505 5504 5501 5499 5499 5499 5502 5504 5507 5514 5521 5531 5541 5552 5563 5574 5583 5593 5602 5610
5612 5605 5598 5591 5585 5579 5572 5567 5562 5557 5551 5547 5543 5539 5536 5532 5526 5521 5516 5511 5507 5503 5502 5500 5498 5496 5494 5493 5494 5495 5496 5500 5506 5513 5524 5534 5544 5553 5562 5571 5581 5590 5598
5606 5600 5592 5585 5580 5574 5568 5563 5558 5554 5549 5544 5541 5537 5533 5528 5524 5518 5513 5508 5504 5501 5498 5496 5493 5492 5490 5489 5489 5489 5491 5495 5501 5508 5517 5525 5532 5542 5553 5562 5572 5581 5588
5601 5594 5587 5580 5574 5569 5564 5559 5555 5552 5546 5541 5539 5534 5529 5527 5523 5516 5509 5505 5501 5497 5494 5493 5492 5491 5489 5488 5486 5486 5487 5490 5495 5502 5510 5518 5526 5535 5545 5554 5564 5573 5582
5596 5589 5581 5574 5569 5564 5560 5558 5555 5549 5545 5540 5534 5529 5527 5523 5518 5513 5508 5503 5498 5494 5491 5492 5492 5490 5489 5489 5488 5487 5487 5490 5494 5500 5507 5514 5521 5530 5539 5548 5557 5568 5576
5590 5583 5575 5569 5564 5559 5555 5552 5551 5550 5546 5541 5536 5531 5526 5522 5517 5512 5508 5502 5497 5493 5491 5492 5492 5491 5491 5490 5490 5490 5490 5492 5494 5499 5505 5512 5518 5525 5534 5544 5553 5562 5570
5585 5577 5571 5564 5559 5555 5551 5547 5544 5542 5541 5541 5538 5532 5527 5522 5518 5513 5507 5501 5499 5496 5494 5494 5494 5493 5493 5493 5492 5492 5493 5493 5495 5499 5505 5510 5516 5524 5532 5540 5549 5558 5565
5580 5572 5565 5559 5555 5551 5547 5544 5541 5539 5536 5535 5534 5532 5527 5522 5518 5512 5506 5502 5501 5500 5498 5497 5496 5496 5496 5496 5496 5495 5495 5496 5498 5501 5505 5510 5516 5523 5531 5538 5546 5551 5560
5573 5568 5563 5556 5552 5548 5544 5542 5540 5537 5535 5533 5531 5529 5525 5521 5518 5514 5509 5504 5502 5501 5500 5499 5499 5498 5498 5498 5499 5499 5499 5499 5501 5504 5507 5511 5516 5522 5529 5536 5543 5550 5558
5568 5562 5557 5552 5547 5544 5541 5539 5537 5535 5533 5531 5530 5527 5521 5519 5518 5515 5512 5508 5505 5504 5503 5502 5501 5501 5501 5501 5501 5502 5503 5504 5506 5508 5510 5514 5518 5522 5528 5535 5541 5548 5554
5562 5556 5550 5546 5544 5541 5538 5536 5534 5532 5531 5529 5528 5526 5522 5520 5518 5516 5514 5511 5509 5507 5506 5505 5504 5504 5504 5505 5505 5506 5507 5508 5510 5511 5513 5516 5520 5524 5528 5534 5540 5546 5552
5556 5550 5546 5542 5540 5537 5535 5534 5532 5530 5529 5528 5526 5525 5523 5520 5518 5516 5514 5513 5511 5510 5508 5507 5507 5508 5508 5508 5509 5510 5511 5513 5514 5515 5517 5519 5521 5525 5529 5534 5539 5545 5550
5550 5545 5541 5538 5536 5534 5532 5531 5529 5528 5527 5527 5525 5524 5522 5520 5519 5517 5515 5513 5512 5511 5510 5510 5510 5511 5511 5511 5512 5513 5515 5516 5517 5518 5520 5522 5524 5526 5529 5534 5539 5544 5549
5544 5540 5536 5534 5531 5530 5528 5527 5527 5526 5525 5525 5524 5523 5521 5520 5518 5516 5514 5513 5512 5511 5512 5512 5512 5512 5513 5513 5514 5516 5517 5517 5518 5520 5521 5523 5525 5528 5530 5534 5539 5544 5548
5537 5534 5531 5528 5526 5525 5524 5524 5523 5523 5523 5523 5522 5521 5520 5518 5517 5515 5514 5513 5512 5512 5512 5512 5512 5513 5513 5514 5515 5516 5516 5517 5518 5519 5522 5524 5526 5529 5532 5536 5540 5543 5548